Location: Alpha Ridge Park
(39.3209°N, 76.9128°W)
Time: 23:38:00
(UTC-04:00)

Transit 2A Rocket - Visible Passes

Search period start: 24 May 2019 00:00
Search period end: 03 June 2019 00:00
Orbit: 585 x 918 km, 66.7° (Epoch: 24 May)

Date Brightness Start Highest point End Pass type
(mag) Time Alt. Az. Time Alt. Az. Time Alt. Az.
24 May 7.3 02:06:31 10° N 02:10:48 22° NE 02:14:48 10° E visible
24 May 5.0 03:48:31 10° NW 03:53:52 57° WSW 03:57:24 19° S visible
25 May 7.7 01:24:48 10° N 01:27:48 14° NE 01:30:40 10° ENE visible
25 May 5.0 03:05:53 10° NNW 03:11:26 81° ENE 03:14:07 29° SE visible
25 May 6.7 04:51:31 10° W 04:53:03 11° W 04:53:54 11° WSW visible
26 May 5.8 02:23:29 10° NNW 02:28:49 47° NE 02:31:18 27° ESE visible
26 May 6.2 04:07:01 10° WNW 04:10:58 21° WSW 04:11:07 21° WSW visible
27 May 6.7 01:41:16 10° N 01:46:04 29° NE 01:48:47 19° E visible
27 May 5.5 03:23:48 10° NW 03:28:37 38° WSW 03:28:37 38° WSW visible
28 May 7.4 00:59:17 10° N 01:03:09 19° NE 01:06:28 11° E visible
28 May 4.8 02:41:00 10° NNW 02:46:19 69° WSW 02:46:19 69° WSW visible
29 May 7.7 00:17:51 10° NNE 00:20:06 12° NE 00:22:17 10° ENE visible
29 May 5.1 01:58:27 10° NNW 02:03:55 68° ENE 02:04:10 66° ENE visible
29 May 7.0 03:43:05 10° WNW 03:44:01 12° W 03:44:01 12° W visible
30 May 6.0 01:16:06 10° NNW 01:21:16 39° NE 01:22:08 37° ENE visible
30 May 6.5 02:59:15 10° NW 03:01:59 22° WNW 03:01:59 22° WNW visible
31 May 6.7 00:33:58 10° N 00:38:27 25° NE 00:40:10 21° ENE visible
31 May 5.8 02:16:13 10° NW 02:20:02 38° WNW 02:20:02 38° WNW visible
31 May 7.3 23:52:08 10° N 23:55:30 16° NE 23:58:18 11° ENE visible
01 Jun 5.2 01:33:31 10° NNW 01:38:10 65° NW 01:38:10 65° NW visible
01 Jun 7.7 23:11:19 10° NNE 23:12:24 11° NE 23:13:28 10° NE visible
02 Jun 5.4 00:51:02 10° NNW 00:56:21 56° NE 00:56:21 56° NE visible
02 Jun 7.1 02:35:02 10° WNW 02:36:13 14° WNW 02:36:13 14° WNW visible
